Time,TemperatureF,DewpointF,PressureIn,WindDirection,WindDirectionDegrees,WindSpeedMPH,WindSpeedGustMPH,Humidity,HourlyPrecipIn,Conditions,Clouds,dailyrainin,SolarRadiationWatts/m^2,SoftwareType,DateUTC
2013-07-14 00:01:00,79.2,66.4,29.94,South,191,0.0,0.0,65,0.01,,CLR,0.00,0.00,VWS V14.01,2013-07-14 05:01:00,
2013-07-14 00:06:00,78.6,66.3,29.94,South,191,0.0,0.0,66,0.01,,CLR,0.00,0.00,VWS V14.01,2013-07-14 05:06:00,
2013-07-14 00:11:00,78.4,66.1,29.94,South,191,0.0,0.0,66,0.01,,CLR,0.00,0.00,VWS V14.01,2013-07-14 05:11:00,
2013-07-14 00:16:00,78.3,66.9,29.93,South,191,0.0,0.0,68,0.01,,CLR,0.00,0.00,VWS V14.01,2013-07-14 05:16:00,
2013-07-14 00:21:00,78.1,67.1,29.93,South,191,0.0,0.0,69,0.01,,CLR,0.00,0.00,VWS V14.01,2013-07-14 05:21:00,
2013-07-14 00:26:00,77.7,66.3,29.93,South,191,0.0,0.0,68,0.01,,CLR,0.00,0.00,VWS V14.01,2013-07-14 05:26:00,
2013-07-14 00:31:00,77.5,66.1,29.92,SSW,192,1.0,3.0,68,0.01,,CLR,0.00,0.00,VWS V14.01,2013-07-14 05:31:00,
2013-07-14 00:36:00,77.1,65.7,29.92,SSW,192,0.0,0.0,68,0.01,,CLR,0.00,0.00,VWS V14.01,2013-07-14 05:36:00,
2013-07-14 00:41:00,77.1,65.7,29.92,SSW,192,0.0,0.0,68,0.01,,CLR,0.00,0.00,VWS V14.01,2013-07-14 05:41:00,
2013-07-14 00:46:00,77.0,66.1,29.93,SSW,192,0.0,0.0,69,0.00,,CLR,0.00,0.00,VWS V14.01,2013-07-14 05:46:00,
2013-07-14 00:51:00,77.0,66.1,29.93,SSW,192,0.0,0.0,69,0.00,,CLR,0.00,0.00,VWS V14.01,2013-07-14 05:51:00,
2013-07-14 00:56:00,76.8,65.9,29.93,SSW,192,0.0,0.0,69,0.00,,CLR,0.00,0.00,VWS V14.01,2013-07-14 05:56:00,
2013-07-14 01:01:00,76.8,65.9,29.92,SSW,192,0.0,0.0,69,0.00,,-RA,0.00,0.00,VWS V14.01,2013-07-14 06:01:00,
2013-07-14 01:06:00,76.8,65.9,29.92,SSW,192,0.0,0.0,69,0.00,,-RA,0.00,0.00,VWS V14.01,2013-07-14 06:06:00,
2013-07-14 01:11:00,76.6,65.3,29.92,SSW,192,0.0,0.0,68,0.00,,-RA,0.00,0.00,VWS V14.01,2013-07-14 06:11:00,
2013-07-14 01:16:00,76.6,65.3,29.91,SSW,192,0.0,0.0,68,0.00,,-RA,0.00,0.00,VWS V14.01,2013-07-14 06:16:00,
2013-07-14 01:21:00,76.4,64.6,29.91,SSW,192,0.0,0.0,67,0.00,,-RA,0.00,0.00,VWS V14.01,2013-07-14 06:21:00,
2013-07-14 01:26:00,76.4,64.6,29.91,SSW,192,0.0,0.0,67,0.00,,-RA,0.00,0.00,VWS V14.01,2013-07-14 06:26:00,
2013-07-14 01:31:00,76.2,64.4,29.91,SSW,192,0.0,0.0,67,0.00,,-RA,0.00,0.00,VWS V14.01,2013-07-14 06:31:00,
2013-07-14 01:36:00,76.2,64.9,29.91,SSW,192,0.0,0.0,68,0.00,,-RA,0.00,0.00,VWS V14.01,2013-07-14 06:36:00,
2013-07-14 01:41:00,76.2,64.9,29.91,SSW,192,0.0,0.0,68,0.00,,-RA,0.00,0.00,VWS V14.01,2013-07-14 06:41:00,
2013-07-14 01:46:00,76.1,64.8,29.93,SSW,192,0.0,0.0,68,0.00,,-RA,0.00,0.00,VWS V14.01,2013-07-14 06:46:00,
2013-07-14 01:51:00,76.1,65.2,29.93,SSW,192,0.0,0.0,69,0.00,,-RA,0.00,0.00,VWS V14.01,2013-07-14 06:51:00,
2013-07-14 01:56:00,75.9,65.0,29.93,SSW,192,0.0,0.0,69,0.00,,-RA,0.00,0.00,VWS V14.01,2013-07-14 06:56:00,
2013-07-14 02:01:00,75.9,65.0,29.93,SSW,192,0.0,0.0,69,0.00,,-RA,0.00,0.00,VWS V14.01,2013-07-14 07:01:00,
2013-07-14 02:06:00,75.7,64.8,29.93,SSW,192,0.0,0.0,69,0.00,,-RA,0.00,0.00,VWS V14.01,2013-07-14 07:06:00,
2013-07-14 02:11:00,75.7,64.8,29.93,SSW,192,0.0,0.0,69,0.00,,-RA,0.00,0.00,VWS V14.01,2013-07-14 07:11:00,
2013-07-14 02:16:00,75.5,64.6,29.92,SSW,192,0.0,0.0,69,0.00,,-RA,0.00,0.00,VWS V14.01,2013-07-14 07:16:00,
2013-07-14 02:21:00,75.3,64.4,29.92,SSW,192,0.0,0.0,69,0.00,,-RA,0.00,0.00,VWS V14.01,2013-07-14 07:21:00,
2013-07-14 02:26:00,75.3,64.4,29.92,SSW,192,0.0,0.0,69,0.00,,-RA,0.00,0.00,VWS V14.01,2013-07-14 07:26:00,
2013-07-14 02:31:00,75.2,64.3,29.92,SSW,192,0.0,0.0,69,0.00,,-RA,0.00,0.00,VWS V14.01,2013-07-14 07:31:00,
2013-07-14 02:36:00,75.0,63.7,29.92,SSW,192,0.0,0.0,68,0.00,,-RA,0.00,0.00,VWS V14.01,2013-07-14 07:36:00,
2013-07-14 02:41:00,75.0,63.7,29.92,SSW,192,0.0,0.0,68,0.00,,-RA,0.00,0.00,VWS V14.01,2013-07-14 07:41:00,
2013-07-14 02:46:00,74.8,62.7,29.91,SSW,192,0.0,0.0,66,0.00,,-RA,0.00,0.00,VWS V14.01,2013-07-14 07:46:00,
2013-07-14 02:51:00,74.8,62.3,29.91,SSW,192,0.0,0.0,65,0.00,,-RA,0.00,0.00,VWS V14.01,2013-07-14 07:51:00,
2013-07-14 02:56:00,74.8,61.8,29.91,SSW,192,0.0,0.0,64,0.00,,-RA,0.00,0.00,VWS V14.01,2013-07-14 07:56:00,
2013-07-14 03:01:00,74.8,61.8,29.91,SSW,192,0.0,0.0,64,0.00,,CLR,0.00,0.00,VWS V14.01,2013-07-14 08:01:00,
2013-07-14 03:06:00,74.8,61.8,29.91,SSW,192,0.0,0.0,64,0.00,,CLR,0.00,0.00,VWS V14.01,2013-07-14 08:06:00,
2013-07-14 03:11:00,74.8,61.8,29.91,SSW,192,0.0,0.0,64,0.00,,CLR,0.00,0.00,VWS V14.01,2013-07-14 08:11:00,
2013-07-14 03:16:00,75.0,62.0,29.90,SSW,192,0.0,0.0,64,0.00,,CLR,0.00,0.00,VWS V14.01,2013-07-14 08:16:00,
2013-07-14 03:20:00,75.0,62.0,29.90,SSW,192,0.0,0.0,64,0.00,,CLR,0.00,0.00,VWS V14.01,2013-07-14 08:20:00,
2013-07-14 03:25:00,75.0,61.6,29.90,SSW,192,0.0,0.0,63,0.00,,CLR,0.00,0.00,VWS V14.01,2013-07-14 08:25:00,
2013-07-14 03:26:00,75.0,61.6,29.90,SSW,192,0.0,0.0,63,0.00,,CLR,0.00,0.00,VWS V14.01,2013-07-14 08:26:00,
2013-07-14 03:31:00,75.0,61.6,29.91,SSW,192,0.0,0.0,63,0.00,,CLR,0.00,0.00,VWS V14.01,2013-07-14 08:31:00,
2013-07-14 03:36:00,74.8,60.9,29.91,South,191,0.0,1.0,62,0.01,,CLR,0.01,0.00,VWS V14.01,2013-07-14 08:36:00,
2013-07-14 03:41:00,74.8,60.9,29.91,South,189,0.0,3.0,62,0.01,,CLR,0.01,0.00,VWS V14.01,2013-07-14 08:41:00,
2013-07-14 03:45:00,74.8,60.5,29.91,ESE,121,0.0,7.0,61,0.01,,CLR,0.01,0.00,VWS V14.01,2013-07-14 08:45:00,
2013-07-14 03:50:00,74.8,60.0,29.91,SE,130,0.0,7.0,60,0.01,,CLR,0.01,0.00,VWS V14.01,2013-07-14 08:50:00,
2013-07-14 03:55:00,74.8,60.5,29.91,SE,130,0.0,0.0,61,0.01,,CLR,0.01,0.00,VWS V14.01,2013-07-14 08:55:00,
2013-07-14 04:00:00,75.0,60.7,29.90,SSE,161,0.0,6.0,61,0.01,,CLR,0.01,0.00,VWS V14.01,2013-07-14 09:00:00,
2013-07-14 04:05:00,75.0,60.7,29.90,SSE,167,3.0,4.0,61,0.01,,CLR,0.01,0.00,VWS V14.01,2013-07-14 09:05:00,
2013-07-14 04:10:00,75.0,60.2,29.90,South,169,0.0,7.0,60,0.01,,CLR,0.01,0.00,VWS V14.01,2013-07-14 09:10:00,
2013-07-14 04:15:00,75.0,60.2,29.90,South,175,0.0,5.0,60,0.01,,CLR,0.01,0.00,VWS V14.01,2013-07-14 09:15:00,
2013-07-14 04:20:00,75.0,60.2,29.90,South,178,0.0,0.0,60,0.01,,CLR,0.01,0.00,VWS V14.01,2013-07-14 09:20:00,
2013-07-14 04:25:00,75.0,60.2,29.90,South,178,0.0,0.0,60,0.01,,CLR,0.01,0.00,VWS V14.01,2013-07-14 09:25:00,
2013-07-14 04:30:00,75.2,60.4,29.92,South,178,0.0,0.0,60,0.01,,CLR,0.01,0.00,VWS V14.01,2013-07-14 09:30:00,
2013-07-14 04:35:00,75.2,60.4,29.92,South,178,0.0,0.0,60,0.01,,CLR,0.01,0.00,VWS V14.01,2013-07-14 09:35:00,
2013-07-14 04:40:00,75.2,60.4,29.92,South,178,0.0,0.0,60,0.00,,CLR,0.01,0.00,VWS V14.01,2013-07-14 09:40:00,
2013-07-14 04:45:00,75.2,60.8,29.92,South,178,0.0,0.0,61,0.00,,CLR,0.01,0.00,VWS V14.01,2013-07-14 09:45:00,
2013-07-14 04:50:00,75.2,61.3,29.92,South,178,0.0,0.0,62,0.00,,CLR,0.01,0.00,VWS V14.01,2013-07-14 09:50:00,
2013-07-14 04:55:00,75.2,62.2,29.92,South,178,0.0,0.0,64,0.00,,CLR,0.01,0.00,VWS V14.01,2013-07-14 09:55:00,
2013-07-14 05:00:00,75.0,62.0,29.94,South,176,0.0,0.0,64,0.00,,CLR,0.01,0.00,VWS V14.01,2013-07-14 10:00:00,
2013-07-14 05:05:00,74.8,61.8,29.94,South,176,0.0,0.0,64,0.00,,CLR,0.01,0.00,VWS V14.01,2013-07-14 10:05:00,
2013-07-14 05:10:00,74.8,62.3,29.94,South,176,0.0,0.0,65,0.00,,CLR,0.01,0.00,VWS V14.01,2013-07-14 10:10:00,
2013-07-14 05:15:00,74.6,62.5,29.92,South,182,4.0,4.0,66,0.00,,CLR,0.01,0.00,VWS V14.01,2013-07-14 10:15:00,
2013-07-14 05:20:00,74.5,62.4,29.92,South,184,0.0,5.0,66,0.00,,CLR,0.01,0.00,VWS V14.01,2013-07-14 10:20:00,
2013-07-14 05:25:00,74.3,62.2,29.92,South,184,0.0,0.0,66,0.00,,CLR,0.01,0.00,VWS V14.01,2013-07-14 10:25:00,
2013-07-14 05:30:00,74.1,62.0,29.95,South,180,0.0,0.0,66,0.00,,CLR,0.01,0.00,VWS V14.01,2013-07-14 10:30:00,
2013-07-14 05:35:00,73.9,62.3,29.95,South,180,0.0,0.0,67,0.00,,CLR,0.01,0.00,VWS V14.01,2013-07-14 10:35:00,
2013-07-14 05:40:00,73.9,62.3,29.95,South,180,0.0,0.0,67,0.00,,CLR,0.01,0.00,VWS V14.01,2013-07-14 10:40:00,
2013-07-14 05:45:00,73.8,62.2,29.93,South,180,0.0,0.0,67,0.00,,CLR,0.01,0.00,VWS V14.01,2013-07-14 10:45:00,
2013-07-14 05:50:00,73.8,62.6,29.93,South,180,0.0,0.0,68,0.00,,CLR,0.01,0.00,VWS V14.01,2013-07-14 10:50:00,
2013-07-14 05:55:00,73.6,62.4,29.93,South,180,0.0,0.0,68,0.00,,CLR,0.01,0.00,VWS V14.01,2013-07-14 10:55:00,
2013-07-14 06:00:00,73.6,62.4,29.92,South,180,0.0,0.0,68,0.00,,SCT110,0.01,0.00,VWS V14.01,2013-07-14 11:00:00,
2013-07-14 06:05:00,73.4,62.2,29.92,South,180,0.0,0.0,68,0.00,,SCT110,0.01,0.00,VWS V14.01,2013-07-14 11:05:00,
2013-07-14 06:10:00,73.2,62.0,29.92,South,180,0.0,0.0,68,0.00,,SCT110,0.01,0.00,VWS V14.01,2013-07-14 11:10:00,
2013-07-14 06:15:00,73.2,62.0,29.93,South,180,0.0,1.0,68,0.00,,SCT110,0.01,0.00,VWS V14.01,2013-07-14 11:15:00,
2013-07-14 06:20:00,73.1,61.9,29.93,South,179,0.0,5.0,68,0.00,,SCT110,0.01,0.00,VWS V14.01,2013-07-14 11:20:00,
2013-07-14 06:25:00,73.1,61.9,29.93,South,179,0.0,0.0,68,0.00,,SCT110,0.01,5.75,VWS V14.01,2013-07-14 11:25:00,
2013-07-14 06:30:00,73.1,61.9,29.93,South,179,0.0,0.0,68,0.00,,SCT110,0.01,12.65,VWS V14.01,2013-07-14 11:30:00,
2013-07-14 06:35:00,73.1,61.9,29.93,South,179,0.0,4.0,68,0.00,,SCT110,0.01,20.70,VWS V14.01,2013-07-14 11:35:00,
2013-07-14 06:40:00,73.1,62.3,29.93,South,179,0.0,4.0,69,0.00,,SCT110,0.01,34.50,VWS V14.01,2013-07-14 11:40:00,
2013-07-14 06:45:00,72.9,62.1,29.94,South,179,0.0,0.0,69,0.00,,SCT110,0.01,34.50,VWS V14.01,2013-07-14 11:45:00,
2013-07-14 06:50:00,72.9,62.1,29.94,South,179,0.0,0.0,69,0.00,,SCT110,0.01,50.60,VWS V14.01,2013-07-14 11:50:00,
2013-07-14 06:55:00,73.1,62.3,29.94,South,179,0.0,0.0,69,0.00,,SCT110,0.01,40.25,VWS V14.01,2013-07-14 11:55:00,
2013-07-14 07:00:00,73.1,62.3,29.96,South,179,0.0,0.0,69,0.00,,SCT110,0.01,28.75,VWS V14.01,2013-07-14 12:00:00,
2013-07-14 07:05:00,73.1,62.3,29.96,South,179,0.0,0.0,69,0.00,,SCT110,0.01,24.15,VWS V14.01,2013-07-14 12:05:00,
2013-07-14 07:10:00,73.2,62.4,29.96,South,179,0.0,0.0,69,0.00,,SCT110,0.01,24.15,VWS V14.01,2013-07-14 12:10:00,
2013-07-14 07:15:00,73.2,62.4,29.97,South,179,0.0,0.0,69,0.00,,SCT110,0.01,21.85,VWS V14.01,2013-07-14 12:15:00,
2013-07-14 07:20:00,73.2,62.4,29.97,South,179,0.0,0.0,69,0.00,,SCT110,0.01,24.15,VWS V14.01,2013-07-14 12:20:00,
2013-07-14 07:25:00,73.2,62.4,29.97,South,179,0.0,0.0,69,0.00,,SCT110,0.01,29.90,VWS V14.01,2013-07-14 12:25:00,
2013-07-14 07:30:00,73.2,62.4,29.97,South,179,0.0,0.0,69,0.00,,SCT110,0.01,32.20,VWS V14.01,2013-07-14 12:30:00,
2013-07-14 07:35:00,73.4,62.6,29.97,South,179,0.0,0.0,69,0.00,,SCT110,0.01,34.50,VWS V14.01,2013-07-14 12:35:00,
2013-07-14 07:40:00,73.4,62.6,29.97,South,179,0.0,0.0,69,0.00,,SCT110,0.01,37.95,VWS V14.01,2013-07-14 12:40:00,
2013-07-14 07:45:00,73.4,62.6,29.98,South,179,0.0,0.0,69,0.00,,SCT110,0.01,48.30,VWS V14.01,2013-07-14 12:45:00,
2013-07-14 07:50:00,73.4,62.2,29.98,South,179,0.0,0.0,68,0.00,,SCT110,0.01,71.30,VWS V14.01,2013-07-14 12:50:00,
2013-07-14 07:55:00,73.4,62.2,29.98,South,179,0.0,0.0,68,0.00,,SCT110,0.01,95.45,VWS V14.01,2013-07-14 12:55:00,
2013-07-14 08:00:00,73.8,63.0,29.98,South,179,0.0,0.0,69,0.00,,SCT110,0.01,154.10,VWS V14.01,2013-07-14 13:00:00,
2013-07-14 08:05:00,74.1,62.0,29.98,South,179,0.0,0.0,66,0.00,,FEW110,0.01,162.15,VWS V14.01,2013-07-14 13:05:00,
2013-07-14 08:10:00,74.5,62.0,29.98,South,179,0.0,0.0,65,0.00,,FEW110,0.01,197.80,VWS V14.01,2013-07-14 13:10:00,
2013-07-14 08:15:00,74.6,61.6,29.99,South,179,0.0,0.0,64,0.00,,FEW110,0.01,179.40,VWS V14.01,2013-07-14 13:15:00,
2013-07-14 08:20:00,75.0,62.0,29.99,South,179,0.0,0.0,64,0.00,,FEW110,0.01,155.25,VWS V14.01,2013-07-14 13:20:00,
2013-07-14 08:25:00,75.2,62.2,29.99,South,179,0.0,0.0,64,0.00,,FEW110,0.01,299.00,VWS V14.01,2013-07-14 13:25:00,
2013-07-14 08:30:00,75.3,62.3,29.99,South,179,0.0,2.0,64,0.00,,FEW110,0.01,186.30,VWS V14.01,2013-07-14 13:30:00,
2013-07-14 08:35:00,75.3,62.3,29.99,South,179,0.0,0.0,64,0.00,,FEW110,0.01,178.25,VWS V14.01,2013-07-14 13:35:00,
2013-07-14 08:40:00,75.3,62.3,29.99,South,179,0.0,0.0,64,0.00,,FEW110,0.01,167.90,VWS V14.01,2013-07-14 13:40:00,
2013-07-14 08:45:00,75.5,62.0,30.00,South,184,0.0,3.0,63,0.00,,FEW110,0.01,162.15,VWS V14.01,2013-07-14 13:45:00,
2013-07-14 08:50:00,75.7,62.2,30.00,South,184,0.0,0.0,63,0.00,,FEW110,0.01,117.30,VWS V14.01,2013-07-14 13:50:00,
2013-07-14 08:55:00,75.9,62.4,30.00,South,185,0.0,0.0,63,0.00,,FEW110,0.01,197.80,VWS V14.01,2013-07-14 13:55:00,
2013-07-14 09:00:00,76.2,62.7,30.00,South,188,0.0,4.0,63,0.00,,FEW110,0.01,205.85,VWS V14.01,2013-07-14 14:00:00,
2013-07-14 09:05:00,76.6,63.1,30.00,South,188,0.0,0.0,63,0.00,,FEW085,0.01,135.70,VWS V14.01,2013-07-14 14:05:00,
2013-07-14 09:10:00,76.6,62.6,30.00,South,188,0.0,0.0,62,0.00,,FEW085,0.01,96.60,VWS V14.01,2013-07-14 14:10:00,
2013-07-14 09:15:00,76.4,62.4,30.00,South,188,0.0,0.0,62,0.00,,FEW085,0.01,189.75,VWS V14.01,2013-07-14 14:15:00,
2013-07-14 09:20:00,76.2,63.1,30.00,South,188,0.0,0.0,64,0.00,,FEW085,0.01,197.80,VWS V14.01,2013-07-14 14:20:00,
2013-07-14 09:25:00,76.2,63.1,30.00,South,188,0.0,0.0,64,0.00,,FEW085,0.01,250.70,VWS V14.01,2013-07-14 14:25:00,
2013-07-14 09:30:00,76.6,63.1,29.99,South,187,0.0,1.0,63,0.00,,FEW085,0.01,555.45,VWS V14.01,2013-07-14 14:30:00,
2013-07-14 09:35:00,77.0,63.0,29.99,South,187,0.0,4.0,62,0.00,,FEW085,0.01,602.60,VWS V14.01,2013-07-14 14:35:00,
2013-07-14 09:40:00,77.7,63.2,29.99,South,184,5.0,7.0,61,0.00,,FEW085,0.01,456.55,VWS V14.01,2013-07-14 14:40:00,
2013-07-14 09:45:00,77.9,62.9,29.99,South,184,0.0,5.0,60,0.00,,FEW085,0.01,295.55,VWS V14.01,2013-07-14 14:45:00,
2013-07-14 09:50:00,77.5,63.0,29.99,South,184,0.0,0.0,61,0.00,,FEW085,0.01,288.65,VWS V14.01,2013-07-14 14:50:00,
2013-07-14 09:55:00,77.1,63.1,29.99,South,184,2.0,2.0,62,0.00,,FEW085,0.01,263.35,VWS V14.01,2013-07-14 14:55:00,
2013-07-14 10:00:00,77.1,63.5,29.99,South,182,0.0,5.0,63,0.00,,FEW085,0.01,373.75,VWS V14.01,2013-07-14 15:00:00,
2013-07-14 10:05:00,77.1,63.5,29.99,South,169,0.0,7.0,63,0.00,,OVC050,0.01,325.45,VWS V14.01,2013-07-14 15:05:00,
2013-07-14 10:10:00,77.1,63.5,29.99,South,169,0.0,5.0,63,0.00,,OVC050,0.01,282.90,VWS V14.01,2013-07-14 15:10:00,
2013-07-14 10:15:00,77.0,63.0,29.99,South,169,0.0,0.0,62,0.00,,OVC050,0.01,261.05,VWS V14.01,2013-07-14 15:15:00,
2013-07-14 10:20:00,77.0,63.0,29.99,South,172,0.0,10.0,62,0.00,,OVC050,0.01,331.20,VWS V14.01,2013-07-14 15:20:00,
2013-07-14 10:25:00,78.1,63.6,29.99,South,174,0.0,6.0,61,0.00,,OVC050,0.01,859.05,VWS V14.01,2013-07-14 15:25:00,
2013-07-14 10:30:00,78.6,63.6,29.99,SSE,160,0.0,8.0,60,0.00,,OVC050,0.01,810.75,VWS V14.01,2013-07-14 15:30:00,
2013-07-14 10:35:00,79.2,63.2,29.99,SSE,158,7.0,7.0,58,0.00,,OVC050,0.01,818.80,VWS V14.01,2013-07-14 15:35:00,
2013-07-14 10:40:00,79.6,63.0,29.99,SW,223,9.0,10.0,57,0.00,,OVC050,0.01,752.10,VWS V14.01,2013-07-14 15:40:00,
2013-07-14 10:45:00,80.3,63.2,29.99,South,171,0.0,8.0,56,0.00,,OVC050,0.01,776.25,VWS V14.01,2013-07-14 15:45:00,
2013-07-14 10:50:00,80.9,63.2,29.99,SW,217,2.0,11.0,55,0.00,,OVC050,0.01,675.05,VWS V14.01,2013-07-14 15:50:00,
2013-07-14 10:55:00,80.5,63.4,29.99,South,185,0.0,9.0,56,0.00,,OVC050,0.01,488.75,VWS V14.01,2013-07-14 15:55:00,
2013-07-14 11:00:00,80.9,63.2,29.98,South,182,0.0,0.0,55,0.00,,OVC050,0.01,869.40,VWS V14.01,2013-07-14 16:00:00,
2013-07-14 11:05:00,80.9,63.2,29.98,South,172,0.0,8.0,55,0.00,,SCT060,0.01,962.55,VWS V14.01,2013-07-14 16:05:00,
2013-07-14 11:10:00,81.7,64.0,29.98,South,186,0.0,1.0,55,0.00,,SCT060,0.01,1026.95,VWS V14.01,2013-07-14 16:10:00,
2013-07-14 11:15:00,82.6,63.8,29.98,SSE,165,1.0,7.0,53,0.00,,SCT060,0.01,1091.35,VWS V14.01,2013-07-14 16:15:00,
2013-07-14 11:20:00,83.0,63.6,29.98,South,171,0.0,9.0,52,0.00,,SCT060,0.01,1138.50,VWS V14.01,2013-07-14 16:20:00,
2013-07-14 11:25:00,82.5,64.7,29.98,SSE,162,0.0,4.0,55,0.00,,SCT060,0.01,496.80,VWS V14.01,2013-07-14 16:25:00,
2013-07-14 11:30:00,81.7,62.9,29.96,South,178,10.0,10.0,53,0.00,,SCT060,0.01,396.75,VWS V14.01,2013-07-14 16:30:00,
2013-07-14 11:35:00,81.3,62.5,29.96,SSE,149,0.0,9.0,53,0.00,,SCT060,0.01,351.90,VWS V14.01,2013-07-14 16:35:00,
2013-07-14 11:40:00,80.3,61.6,29.96,SE,128,0.0,7.0,53,0.00,,SCT060,0.01,359.95,VWS V14.01,2013-07-14 16:40:00,
2013-07-14 11:45:00,80.7,61.5,29.96,South,171,0.0,11.0,52,0.00,,SCT060,0.01,432.40,VWS V14.01,2013-07-14 16:45:00,
2013-07-14 11:50:00,81.1,61.8,29.96,South,173,0.0,12.0,52,0.00,,SCT060,0.01,472.65,VWS V14.01,2013-07-14 16:50:00,
2013-07-14 11:55:00,81.5,61.7,29.96,South,183,6.0,12.0,51,0.00,,SCT060,0.01,445.05,VWS V14.01,2013-07-14 16:55:00,
2013-07-14 12:00:00,81.9,62.0,29.96,SSW,195,0.0,9.0,51,0.00,,BKN060,0.01,1152.30,VWS V14.01,2013-07-14 17:00:00,
2013-07-14 12:05:00,82.6,62.7,29.96,SSW,208,0.0,10.0,51,0.00,,BKN060,0.01,984.40,VWS V14.01,2013-07-14 17:05:00,
2013-07-14 12:10:00,83.0,62.5,29.96,South,182,0.0,6.0,50,0.00,,BKN060,0.01,994.75,VWS V14.01,2013-07-14 17:10:00,
2013-07-14 12:15:00,83.4,62.3,29.96,SSE,167,0.0,12.0,49,0.00,,BKN060,0.01,1053.40,VWS V14.01,2013-07-14 17:15:00,
2013-07-14 12:20:00,83.4,61.1,29.96,SE,134,2.0,8.0,47,0.00,,BKN060,0.01,1026.95,VWS V14.01,2013-07-14 17:20:00,
2013-07-14 12:25:00,83.6,60.7,29.96,ESE,122,0.0,7.0,46,0.00,,BKN060,0.01,1081.00,VWS V14.01,2013-07-14 17:25:00,
2013-07-14 12:30:00,84.6,61.6,29.96,SSW,202,3.0,9.0,46,0.00,,BKN060,0.01,1150.00,VWS V14.01,2013-07-14 17:30:00,
2013-07-14 12:35:00,85.7,62.6,29.96,SSE,153,0.0,10.0,46,0.00,,BKN060,0.01,1136.20,VWS V14.01,2013-07-14 17:35:00,
2013-07-14 12:40:00,84.4,60.8,29.96,South,173,5.0,13.0,45,0.00,,BKN060,0.01,458.85,VWS V14.01,2013-07-14 17:40:00,
2013-07-14 12:45:00,83.8,60.2,29.96,South,178,2.0,10.0,45,0.00,,BKN060,0.01,424.35,VWS V14.01,2013-07-14 17:45:00,
2013-07-14 12:50:00,83.8,60.8,29.96,SE,139,2.0,11.0,46,0.00,,BKN060,0.01,911.95,VWS V14.01,2013-07-14 17:50:00,
2013-07-14 12:55:00,84.4,60.1,29.96,South,184,7.0,12.0,44,0.00,,BKN060,0.01,1146.55,VWS V14.01,2013-07-14 17:55:00,
2013-07-14 13:00:00,85.0,60.7,29.96,SSE,165,4.0,11.0,44,0.00,,CLR,0.01,1037.30,VWS V14.01,2013-07-14 18:00:00,
2013-07-14 13:05:00,85.9,61.5,29.96,South,176,0.0,12.0,44,0.00,,CLR,0.01,1075.25,VWS V14.01,2013-07-14 18:05:00,
2013-07-14 13:10:00,85.7,61.3,29.96,SE,139,0.0,6.0,44,0.00,,CLR,0.01,1016.60,VWS V14.01,2013-07-14 18:10:00,
2013-07-14 13:15:00,86.1,61.7,29.96,South,189,15.0,15.0,44,0.00,,CLR,0.01,349.60,VWS V14.01,2013-07-14 18:15:00,
2013-07-14 13:20:00,86.1,61.7,29.96,SW,215,4.0,8.0,44,0.00,,CLR,0.01,349.60,VWS V14.01,2013-07-14 18:20:00,
2013-07-14 13:25:00,85.9,62.1,29.96,South,173,0.0,7.0,45,0.00,,CLR,0.01,1170.70,VWS V14.01,2013-07-14 18:25:00,
2013-07-14 13:30:00,85.9,61.5,29.95,SSE,163,4.0,10.0,44,0.00,,CLR,0.01,1083.30,VWS V14.01,2013-07-14 18:30:00,
2013-07-14 13:35:00,85.5,61.1,29.95,SSE,157,0.0,11.0,44,0.00,,CLR,0.01,1083.30,VWS V14.01,2013-07-14 18:35:00,
2013-07-14 13:40:00,85.7,61.9,29.95,South,190,0.0,11.0,45,0.00,,CLR,0.01,1039.60,VWS V14.01,2013-07-14 18:40:00,
2013-07-14 13:45:00,85.5,61.8,29.95,SSW,209,5.0,13.0,45,0.00,,CLR,0.01,1055.70,VWS V14.01,2013-07-14 18:45:00,
2013-07-14 13:50:00,85.5,61.8,29.95,South,175,5.0,13.0,45,0.00,,CLR,0.01,1069.50,VWS V14.01,2013-07-14 18:50:00,
2013-07-14 13:55:00,86.5,61.4,29.95,South,179,6.0,11.0,43,0.00,,CLR,0.01,1106.30,VWS V14.01,2013-07-14 18:55:00,
2013-07-14 14:00:00,87.3,60.8,29.95,SSW,200,0.0,12.0,41,0.00,,CLR,0.01,1125.85,VWS V14.01,2013-07-14 19:00:00,
2013-07-14 14:05:00,87.1,59.9,29.95,SW,215,1.0,12.0,40,0.00,,CLR,0.01,1053.40,VWS V14.01,2013-07-14 19:05:00,
2013-07-14 14:10:00,88.0,61.4,29.95,SE,142,4.0,9.0,41,0.00,,CLR,0.01,1051.10,VWS V14.01,2013-07-14 19:10:00,
2013-07-14 14:15:00,86.9,60.4,29.95,SSE,167,0.0,6.0,41,0.00,,CLR,0.01,1029.25,VWS V14.01,2013-07-14 19:15:00,
2013-07-14 14:20:00,86.7,60.2,29.95,South,186,0.0,5.0,41,0.00,,CLR,0.01,1072.95,VWS V14.01,2013-07-14 19:20:00,
2013-07-14 14:25:00,87.1,59.9,29.95,South,189,4.0,9.0,40,0.00,,CLR,0.01,1069.50,VWS V14.01,2013-07-14 19:25:00,
2013-07-14 14:30:00,87.1,61.2,29.95,SSE,150,0.0,10.0,42,0.00,,CLR,0.01,704.95,VWS V14.01,2013-07-14 19:30:00,
2013-07-14 14:35:00,88.2,60.8,29.95,South,178,2.0,6.0,40,0.00,,CLR,0.01,1035.00,VWS V14.01,2013-07-14 19:35:00,
2013-07-14 14:40:00,88.0,59.2,29.95,SE,130,0.0,10.0,38,0.00,,CLR,0.01,1067.20,VWS V14.01,2013-07-14 19:40:00,
2013-07-14 14:45:00,87.3,60.8,29.95,SSW,207,0.0,1.0,41,0.00,,CLR,0.01,238.05,VWS V14.01,2013-07-14 19:45:00,
2013-07-14 14:50:00,86.9,61.1,29.95,SSE,153,0.0,4.0,42,0.00,,CLR,0.01,997.05,VWS V14.01,2013-07-14 19:50:00,
2013-07-14 14:55:00,88.4,61.0,29.95,South,171,0.0,7.0,40,0.00,,CLR,0.01,1006.25,VWS V14.01,2013-07-14 19:55:00,
2013-07-14 15:00:00,88.2,60.8,29.95,SSW,202,3.0,7.0,40,0.00,,CLR,0.01,1051.10,VWS V14.01,2013-07-14 20:00:00,
2013-07-14 15:05:00,87.1,59.9,29.95,South,186,0.0,2.0,40,0.00,,BKN100,0.01,312.80,VWS V14.01,2013-07-14 20:05:00,
2013-07-14 15:10:00,88.0,60.7,29.95,South,181,1.0,5.0,40,0.00,,BKN100,0.01,980.95,VWS V14.01,2013-07-14 20:10:00,
2013-07-14 15:15:00,88.2,60.8,29.94,South,171,0.0,7.0,40,0.00,,BKN100,0.01,304.75,VWS V14.01,2013-07-14 20:15:00,
2013-07-14 15:20:00,87.1,60.6,29.94,South,170,0.0,0.0,41,0.00,,BKN100,0.01,994.75,VWS V14.01,2013-07-14 20:20:00,
2013-07-14 15:25:00,88.4,61.0,29.94,SW,214,2.0,12.0,40,0.00,,BKN100,0.01,1067.20,VWS V14.01,2013-07-14 20:25:00,
2013-07-14 15:30:00,88.4,61.0,29.94,South,175,4.0,9.0,40,0.00,,BKN100,0.01,1040.75,VWS V14.01,2013-07-14 20:30:00,
2013-07-14 15:35:00,88.0,60.7,29.94,SSW,201,0.0,4.0,40,0.00,,BKN100,0.01,1018.90,VWS V14.01,2013-07-14 20:35:00,
2013-07-14 15:40:00,87.5,62.3,29.94,SSE,167,0.0,4.0,43,0.00,,BKN100,0.01,384.10,VWS V14.01,2013-07-14 20:40:00,
2013-07-14 15:45:00,85.7,61.3,29.93,SSE,148,0.0,1.0,44,0.00,,BKN100,0.01,184.00,VWS V14.01,2013-07-14 20:45:00,
2013-07-14 15:50:00,85.5,59.8,29.93,SSE,147,0.0,8.0,42,0.00,,BKN100,0.01,147.20,VWS V14.01,2013-07-14 20:50:00,
2013-07-14 15:55:00,84.4,65.4,29.93,SE,126,0.0,0.0,53,0.01,,BKN100,0.02,139.15,VWS V14.01,2013-07-14 20:55:00,
2013-07-14 16:00:00,81.7,66.5,29.93,NE,36,0.0,0.0,60,0.01,,BKN110,0.02,119.60,VWS V14.01,2013-07-14 21:00:00,
2013-07-14 16:05:00,80.1,65.9,29.93,NE,36,0.0,0.0,62,0.01,,BKN110,0.02,109.25,VWS V14.01,2013-07-14 21:05:00,
2013-07-14 16:10:00,79.9,66.7,29.93,NE,36,0.0,0.0,64,0.01,,BKN110,0.02,149.50,VWS V14.01,2013-07-14 21:10:00,
2013-07-14 16:15:00,79.9,66.2,29.93,NE,36,0.0,0.0,63,0.01,,BKN110,0.02,208.15,VWS V14.01,2013-07-14 21:15:00,
2013-07-14 16:20:00,80.9,66.2,29.93,NE,36,0.0,0.0,61,0.01,,BKN110,0.02,163.30,VWS V14.01,2013-07-14 21:20:00,
2013-07-14 16:25:00,81.1,66.9,29.93,NE,36,0.0,0.0,62,0.01,,BKN110,0.02,109.25,VWS V14.01,2013-07-14 21:25:00,
2013-07-14 16:30:00,81.5,66.8,29.92,NE,36,0.0,0.0,61,0.01,,BKN110,0.02,123.05,VWS V14.01,2013-07-14 21:30:00,
2013-07-14 16:35:00,81.7,66.5,29.92,NE,36,0.0,0.0,60,0.01,,BKN110,0.02,129.95,VWS V14.01,2013-07-14 21:35:00,
2013-07-14 16:40:00,81.5,64.3,29.92,NE,34,0.0,0.0,56,0.01,,BKN110,0.02,141.45,VWS V14.01,2013-07-14 21:40:00,
2013-07-14 16:45:00,81.5,64.3,29.92,NE,34,0.0,0.0,56,0.01,,BKN110,0.02,133.40,VWS V14.01,2013-07-14 21:45:00,
2013-07-14 16:50:00,81.7,64.0,29.92,NE,34,0.0,0.0,55,0.01,,BKN110,0.02,129.95,VWS V14.01,2013-07-14 21:50:00,
2013-07-14 16:55:00,81.7,63.5,29.92,NE,34,0.0,0.0,54,0.01,,BKN110,0.02,119.60,VWS V14.01,2013-07-14 21:55:00,
2013-07-14 17:00:00,81.9,62.6,29.91,NE,34,0.0,0.0,52,0.00,,BKN110,0.02,133.40,VWS V14.01,2013-07-14 22:00:00,
2013-07-14 17:05:00,82.6,63.2,29.91,NE,34,0.0,0.0,52,0.00,,SCT110,0.02,362.25,VWS V14.01,2013-07-14 22:05:00,
2013-07-14 17:10:00,84.2,62.4,29.91,NE,35,0.0,0.0,48,0.00,,SCT110,0.02,162.15,VWS V14.01,2013-07-14 22:10:00,
2013-07-14 17:15:00,84.2,61.8,29.91,NE,43,0.0,0.0,47,0.00,,SCT110,0.02,127.65,VWS V14.01,2013-07-14 22:15:00,
2013-07-14 17:20:00,84.4,60.1,29.91,ESE,115,0.0,5.0,44,0.00,,SCT110,0.02,133.40,VWS V14.01,2013-07-14 22:20:00,
2013-07-14 17:25:00,84.8,59.8,29.91,ESE,118,0.0,1.0,43,0.00,,SCT110,0.02,143.75,VWS V14.01,2013-07-14 22:25:00,
2013-07-14 17:30:00,85.5,59.8,29.92,ESE,118,0.0,0.0,42,0.00,,SCT110,0.02,138.00,VWS V14.01,2013-07-14 22:30:00,
2013-07-14 17:35:00,85.7,58.6,29.92,ESE,116,0.0,2.0,40,0.00,,SCT110,0.02,248.40,VWS V14.01,2013-07-14 22:35:00,
2013-07-14 17:40:00,85.7,58.6,29.92,ESE,115,0.0,3.0,40,0.00,,SCT110,0.02,167.90,VWS V14.01,2013-07-14 22:40:00,
2013-07-14 17:45:00,86.3,57.0,29.92,SE,136,0.0,5.0,37,0.00,,SCT110,0.02,234.60,VWS V14.01,2013-07-14 22:45:00,
2013-07-14 17:50:00,86.5,57.2,29.92,SE,138,0.0,4.0,37,0.00,,SCT110,0.02,293.25,VWS V14.01,2013-07-14 22:50:00,
2013-07-14 17:55:00,86.9,58.3,29.92,ENE,59,0.0,5.0,38,0.00,,SCT110,0.02,236.90,VWS V14.01,2013-07-14 22:55:00,
2013-07-14 18:00:00,86.5,58.6,29.91,ENE,59,0.0,3.0,39,0.00,,SCT110,0.02,151.80,VWS V14.01,2013-07-14 23:00:00,
2013-07-14 18:05:00,85.9,58.1,29.91,East,83,0.0,5.0,39,0.00,,FEW070,0.02,146.05,VWS V14.01,2013-07-14 23:05:00,
2013-07-14 18:10:00,85.7,58.6,29.91,ENE,61,0.0,2.0,40,0.00,,FEW070,0.02,127.65,VWS V14.01,2013-07-14 23:10:00,
2013-07-14 18:15:00,84.4,60.1,29.91,NW,325,0.0,4.0,44,0.00,,FEW070,0.02,95.45,VWS V14.01,2013-07-14 23:15:00,
2013-07-14 18:20:00,82.8,59.9,29.91,WNW,302,0.0,6.0,46,0.00,,FEW070,0.02,103.50,VWS V14.01,2013-07-14 23:20:00,
2013-07-14 18:25:00,81.9,60.3,29.91,North,11,0.0,3.0,48,0.00,,FEW070,0.02,95.45,VWS V14.01,2013-07-14 23:25:00,
2013-07-14 18:30:00,80.9,60.5,29.92,NNE,22,0.0,5.0,50,0.00,,FEW070,0.02,79.35,VWS V14.01,2013-07-14 23:30:00,
2013-07-14 18:35:00,80.3,60.0,29.92,NNW,343,0.0,0.0,50,0.00,,FEW070,0.02,60.95,VWS V14.01,2013-07-14 23:35:00,
2013-07-14 18:40:00,79.9,59.6,29.92,North,5,0.0,0.0,50,0.00,,FEW070,0.02,58.65,VWS V14.01,2013-07-14 23:40:00,
2013-07-14 18:45:00,79.7,60.0,29.91,North,5,0.0,0.0,51,0.00,,FEW070,0.02,87.40,VWS V14.01,2013-07-14 23:45:00,
2013-07-14 18:50:00,79.4,59.7,29.91,North,9,0.0,0.0,51,0.00,,FEW070,0.02,139.15,VWS V14.01,2013-07-14 23:50:00,
2013-07-14 18:55:00,79.7,60.0,29.91,NNE,21,0.0,2.0,51,0.00,,FEW070,0.02,224.25,VWS V14.01,2013-07-14 23:55:00,
2013-07-14 19:00:00,80.5,60.7,29.91,NNE,24,0.0,1.0,51,0.00,,FEW070,0.02,131.10,VWS V14.01,2013-07-15 00:00:00,
2013-07-14 19:05:00,80.7,60.3,29.91,NNE,24,0.0,0.0,50,0.00,,FEW100,0.02,87.40,VWS V14.01,2013-07-15 00:05:00,
2013-07-14 19:10:00,80.9,62.7,29.91,NNE,24,0.0,3.0,54,0.01,,FEW100,0.03,54.05,VWS V14.01,2013-07-15 00:10:00,
2013-07-14 19:15:00,80.7,63.0,29.92,NNE,24,0.0,0.0,55,0.01,,FEW100,0.03,29.90,VWS V14.01,2013-07-15 00:15:00,
2013-07-14 19:20:00,80.5,64.4,29.92,NNE,24,0.0,0.0,58,0.01,,FEW100,0.03,24.15,VWS V14.01,2013-07-15 00:20:00,
2013-07-14 19:25:00,79.9,63.3,29.92,NNE,24,0.0,0.0,57,0.01,,FEW100,0.03,26.45,VWS V14.01,2013-07-15 00:25:00,
2013-07-14 19:30:00,79.6,63.5,29.92,NNE,24,0.0,0.0,58,0.01,,FEW100,0.03,36.80,VWS V14.01,2013-07-15 00:30:00,
2013-07-14 19:35:00,79.4,63.3,29.92,NNE,24,0.0,0.0,58,0.01,,FEW100,0.03,52.90,VWS V14.01,2013-07-15 00:35:00,
2013-07-14 19:40:00,79.2,64.1,29.92,NNE,24,0.0,0.0,60,0.01,,FEW100,0.03,58.65,VWS V14.01,2013-07-15 00:40:00,
2013-07-14 19:45:00,79.0,65.3,29.92,NNE,24,0.0,0.0,63,0.01,,FEW100,0.03,37.95,VWS V14.01,2013-07-15 00:45:00,
2013-07-14 19:50:00,79.0,65.8,29.92,NNE,24,0.0,0.0,64,0.01,,FEW100,0.03,16.10,VWS V14.01,2013-07-15 00:50:00,
2013-07-14 19:55:00,78.8,65.6,29.92,NNE,24,0.0,0.0,64,0.01,,FEW100,0.03,13.80,VWS V14.01,2013-07-15 00:55:00,
2013-07-14 20:00:00,78.4,65.2,29.93,NNE,24,0.0,0.0,64,0.01,,FEW100,0.03,18.40,VWS V14.01,2013-07-15 01:00:00,
2013-07-14 20:05:00,78.1,64.5,29.93,NNE,24,0.0,0.0,63,0.01,,FEW100,0.03,16.10,VWS V14.01,2013-07-15 01:05:00,
2013-07-14 20:10:00,77.7,63.7,29.93,NNE,24,0.0,0.0,62,0.01,,FEW100,0.03,12.65,VWS V14.01,2013-07-15 01:10:00,
2013-07-14 20:15:00,77.5,63.5,29.93,NNE,24,0.0,0.0,62,0.00,,FEW100,0.03,10.35,VWS V14.01,2013-07-15 01:15:00,
2013-07-14 20:20:00,77.3,62.8,29.93,NNE,24,0.0,0.0,61,0.00,,FEW100,0.03,8.05,VWS V14.01,2013-07-15 01:20:00,
2013-07-14 20:25:00,77.1,62.6,29.93,NNE,24,0.0,0.0,61,0.00,,FEW100,0.03,5.75,VWS V14.01,2013-07-15 01:25:00,
2013-07-14 20:30:00,77.1,62.6,29.95,NNE,24,0.0,0.0,61,0.00,,FEW100,0.03,5.75,VWS V14.01,2013-07-15 01:30:00,
2013-07-14 20:35:00,77.1,63.1,29.95,NNE,24,0.0,0.0,62,0.00,,FEW100,0.03,0.00,VWS V14.01,2013-07-15 01:35:00,
2013-07-14 20:40:00,77.1,63.1,29.95,NNE,24,0.0,0.0,62,0.00,,FEW100,0.03,0.00,VWS V14.01,2013-07-15 01:40:00,
2013-07-14 20:45:00,77.1,63.5,29.95,NNE,24,0.0,0.0,63,0.00,,FEW100,0.03,0.00,VWS V14.01,2013-07-15 01:45:00,
2013-07-14 20:50:00,77.0,63.5,29.95,NNE,24,0.0,0.0,63,0.00,,FEW100,0.03,0.00,VWS V14.01,2013-07-15 01:50:00,
2013-07-14 20:55:00,77.0,63.0,29.95,NNE,24,0.0,0.0,62,0.00,,FEW100,0.03,0.00,VWS V14.01,2013-07-15 01:55:00,
2013-07-14 21:00:00,76.8,63.3,29.95,NNE,24,0.0,0.0,63,0.00,,FEW100,0.03,0.00,VWS V14.01,2013-07-15 02:00:00,
2013-07-14 21:05:00,76.8,63.7,29.95,NNE,24,0.0,0.0,64,0.00,,BKN095,0.03,0.00,VWS V14.01,2013-07-15 02:05:00,
2013-07-14 21:10:00,76.6,63.5,29.95,NNE,24,0.0,0.0,64,0.00,,BKN095,0.03,0.00,VWS V14.01,2013-07-15 02:10:00,
2013-07-14 21:15:00,76.4,63.3,29.95,NNE,24,0.0,0.0,64,0.00,,BKN095,0.03,0.00,VWS V14.01,2013-07-15 02:15:00,
2013-07-14 21:20:00,76.2,63.1,29.95,NNE,24,0.0,0.0,64,0.00,,BKN095,0.03,0.00,VWS V14.01,2013-07-15 02:20:00,
2013-07-14 21:25:00,76.1,63.0,29.95,NNE,24,0.0,0.0,64,0.00,,BKN095,0.03,0.00,VWS V14.01,2013-07-15 02:25:00,
2013-07-14 21:30:00,75.9,62.9,29.96,NNE,24,0.0,0.0,64,0.00,,BKN095,0.03,0.00,VWS V14.01,2013-07-15 02:30:00,
2013-07-14 21:35:00,75.7,62.7,29.96,NNE,24,0.0,0.0,64,0.00,,BKN095,0.03,0.00,VWS V14.01,2013-07-15 02:35:00,
2013-07-14 21:40:00,75.7,62.7,29.96,NNE,24,0.0,0.0,64,0.00,,BKN095,0.03,0.00,VWS V14.01,2013-07-15 02:40:00,
2013-07-14 21:45:00,75.5,62.9,29.97,NNE,24,0.0,0.0,65,0.00,,BKN095,0.03,0.00,VWS V14.01,2013-07-15 02:45:00,
2013-07-14 21:50:00,75.5,62.9,29.97,NNE,24,0.0,0.0,65,0.00,,BKN095,0.03,0.00,VWS V14.01,2013-07-15 02:50:00,
2013-07-14 21:55:00,75.3,63.2,29.97,NNE,24,0.0,0.0,66,0.00,,BKN095,0.03,0.00,VWS V14.01,2013-07-15 02:55:00,
2013-07-14 22:00:00,75.3,63.6,29.97,NNE,24,0.0,0.0,67,0.00,,BKN095,0.03,0.00,VWS V14.01,2013-07-15 03:00:00,
2013-07-14 22:05:00,75.3,64.0,29.98,NNE,25,0.0,0.0,68,0.00,,SCT090,0.03,0.00,VWS V14.01,2013-07-15 03:05:00,
2013-07-14 22:10:00,75.0,63.3,29.98,SW,223,0.0,6.0,67,0.00,,SCT090,0.03,0.00,VWS V14.01,2013-07-15 03:10:00,
2013-07-14 22:15:00,74.8,63.1,29.98,SW,219,0.0,0.0,67,0.00,,SCT090,0.03,0.00,VWS V14.01,2013-07-15 03:15:00,
2013-07-14 22:20:00,74.6,62.9,29.99,SW,217,0.0,1.0,67,0.00,,SCT090,0.03,0.00,VWS V14.01,2013-07-15 03:20:00,
2013-07-14 22:25:00,74.5,63.3,29.99,SW,233,0.0,10.0,68,0.00,,SCT090,0.03,0.00,VWS V14.01,2013-07-15 03:25:00,
2013-07-14 22:30:00,74.3,62.6,29.99,WSW,257,0.0,4.0,67,0.00,,SCT090,0.03,0.00,VWS V14.01,2013-07-15 03:30:00,
2013-07-14 22:35:00,74.3,63.1,30.00,WSW,257,0.0,0.0,68,0.00,,SCT090,0.03,0.00,VWS V14.01,2013-07-15 03:35:00,
2013-07-14 22:40:00,74.1,62.9,30.00,WSW,257,0.0,0.0,68,0.00,,SCT090,0.03,0.00,VWS V14.01,2013-07-15 03:40:00,
2013-07-14 22:45:00,73.9,62.7,30.00,WSW,255,0.0,0.0,68,0.00,,SCT090,0.03,0.00,VWS V14.01,2013-07-15 03:45:00,
2013-07-14 22:50:00,73.9,62.7,30.00,WSW,255,0.0,0.0,68,0.00,,SCT090,0.03,0.00,VWS V14.01,2013-07-15 03:50:00,
2013-07-14 22:55:00,73.8,62.6,30.00,West,260,0.0,3.0,68,0.00,,SCT090,0.03,0.00,VWS V14.01,2013-07-15 03:55:00,
2013-07-14 23:00:00,73.8,62.6,30.00,WSW,258,0.0,0.0,68,0.00,,SCT090,0.03,0.00,VWS V14.01,2013-07-15 04:00:00,
2013-07-14 23:01:00,73.6,62.4,30.00,WSW,258,0.0,0.0,68,0.00,,CLR,0.03,0.00,VWS V14.01,2013-07-15 04:01:00,
2013-07-14 23:06:00,73.6,62.8,30.00,WSW,258,0.0,0.0,69,0.00,,CLR,0.03,0.00,VWS V14.01,2013-07-15 04:06:00,
2013-07-14 23:11:00,73.4,62.6,30.00,West,265,0.0,0.0,69,0.00,,CLR,0.03,0.00,VWS V14.01,2013-07-15 04:11:00,
2013-07-14 23:16:00,73.2,62.4,30.01,West,265,0.0,0.0,69,0.00,,CLR,0.03,0.00,VWS V14.01,2013-07-15 04:16:00,
2013-07-14 23:21:00,73.1,62.7,30.01,West,271,0.0,0.0,70,0.00,,CLR,0.03,0.00,VWS V14.01,2013-07-15 04:21:00,
2013-07-14 23:26:00,72.9,62.5,30.01,West,260,0.0,0.0,70,0.00,,CLR,0.03,0.00,VWS V14.01,2013-07-15 04:26:00,
2013-07-14 23:31:00,72.7,62.4,30.01,West,259,0.0,0.0,70,0.00,,CLR,0.03,0.00,VWS V14.01,2013-07-15 04:31:00,
2013-07-14 23:36:00,72.7,62.8,30.01,West,259,0.0,0.0,71,0.00,,CLR,0.03,0.00,VWS V14.01,2013-07-15 04:36:00,
2013-07-14 23:41:00,72.5,62.6,30.01,West,259,0.0,0.0,71,0.00,,CLR,0.03,0.00,VWS V14.01,2013-07-15 04:41:00,
2013-07-14 23:46:00,72.4,62.5,30.02,West,261,0.0,0.0,71,0.00,,CLR,0.03,0.00,VWS V14.01,2013-07-15 04:46:00,
2013-07-14 23:51:00,72.2,62.7,30.02,West,261,0.0,0.0,72,0.00,,CLR,0.03,0.00,VWS V14.01,2013-07-15 04:51:00,
2013-07-14 23:56:00,72.2,63.1,30.02,West,261,0.0,0.0,73,0.00,,CLR,0.03,0.00,VWS V14.01,2013-07-15 04:56:00,